Voltar ao catálogo

COSMOS 2189

AtivoMilitarLEO
NORAD 21978·PAYLOAD·🇷🇺 Russia

Lançado Jun 3, 1992 de Plesetsk Cosmodrome

Loading…

Próximas Passagens (próximas 24 horas)

TLE

AtualizadoSource: Space-Track

Época: Sep 14, 2026, 16:28 UTC

1 21978U 92030C   26257.68668501 -.00000028  00000-0 -73328-4 0  9992
2 21978  74.0039  42.7773 0040989 265.3296 105.9891 12.54030467569369

Acompanhe COSMOS 2189 em tempo real com AllMySat

Download on the App Store